Estación de Nogales

Ultimos registro cada 15 minutos 33
Estación Fecha / Hora Temperatura Humedad Lluvia Velocidad Dirección Radiación Presion
33 Nogales 02-09-2026 08:00 9,4 96,3 0 0 355 59,4 987,9
32 Nogales 02-09-2026 07:45 9,3 96,5 0 0 355 49,4 987,9
31 Nogales 02-09-2026 07:30 8,7 96,9 0 0,7 37 23,1 987,6
30 Nogales 02-09-2026 07:15 8,4 96,9 0 0 347 13,1 987,4
29 Nogales 02-09-2026 07:00 8,4 96,6 0 0 17 0,6 987,2
28 Nogales 02-09-2026 06:45 8,4 96,1 0 0 20 0,6 986,8
27 Nogales 02-09-2026 06:30 8,6 96,2 0 0 58 0,6 987
26 Nogales 02-09-2026 06:15 8,3 95,6 0 0 58 0,6 986,9
25 Nogales 02-09-2026 06:00 8,8 95,5 0 0 58 0,6 986,6
24 Nogales 02-09-2026 05:45 8,9 95,3 0 0 58 0,6 986,7
23 Nogales 02-09-2026 05:30 9 94,8 0 0 58 0,6 986,7
22 Nogales 02-09-2026 05:15 9,7 94,7 0 0 58 0,6 986,6
21 Nogales 02-09-2026 05:00 10 94,7 0 0 58 0,6 986,7
20 Nogales 02-09-2026 04:45 10,1 94,8 0 0 58 0,6 986,6
19 Nogales 02-09-2026 04:30 10 94,8 0 0 58 0,6 986,7
18 Nogales 02-09-2026 04:15 9,6 94,9 0 0,3 324 0,6 986,8
17 Nogales 02-09-2026 04:00 9,5 94,3 0 0 317 0,6 987
16 Nogales 02-09-2026 03:45 9,6 94,2 0 0 317 0,6 987
15 Nogales 02-09-2026 03:30 9,7 93,8 0 0 317 0,6 987
14 Nogales 02-09-2026 03:15 9,7 93,5 0 0 317 0,6 987,2
13 Nogales 02-09-2026 03:00 9,9 93,2 0 0 317 0,6 987,5
12 Nogales 02-09-2026 02:45 10,3 93,4 0 0,3 310 0,6 987,7
11 Nogales 02-09-2026 02:30 10,1 93,6 0 0 305 0,6 987,8
10 Nogales 02-09-2026 02:15 10,1 93,4 0 0 303 0,6 987,8
9 Nogales 02-09-2026 02:00 10,2 92,7 0 0 303 0,6 987,9
8 Nogales 02-09-2026 01:45 10,8 92,5 0 0 305 0,6 987,7
7 Nogales 02-09-2026 01:30 10,8 92,3 0 0 303 0,6 987,9
6 Nogales 02-09-2026 01:15 10,9 91,7 0 0 305 0,6 988
5 Nogales 02-09-2026 01:00 10,8 91,9 0 0 300 0,6 987,6
4 Nogales 02-09-2026 00:45 10,9 91,6 0 0 298 0,6 987,4
3 Nogales 02-09-2026 00:30 10,8 91,2 0 0 298 0,6 987,2
2 Nogales 02-09-2026 00:15 11,3 90,5 0 0 298 0,6 987
1 Nogales 02-09-2026 00:00 11,6 89,8 0 0 298 0,6 987,1